EFW6KJ LPMA-EGKK

Flight info

Callsign EFW6KJ
Flight time N/A
Altitude 34000
Route DEGUN1W DEGUN DCT RULET DCT GALPA DCT VABEM/N0450F360 DCT TUNAV DCT IBIDO DCT DEMOS DCT KORUL DCT FEJAC DCT JSY/N0440F340 DCT REVTU UP88 VASUX VASUX1G
Aircraft A321/M-SDE3FGIJ1KRWXY/SB1

Departure

Time N/A
Airport Cristiano Ronaldo International Airport (LPMA)

Arrival

Time 2026-05-04 18:23
Airport London Gatwick Airport (EGKK)
Time Latitude Longitude Altitude Speed Heading
2026-05-04 16:47 43.10424 -8.40618 36083 ft 472 kts 28°
2026-05-04 16:48 43.21681 -8.31255 36080 ft 471 kts 28°
2026-05-04 16:49 43.32866 -8.21917 36075 ft 472 kts 28°
2026-05-04 16:50 43.44071 -8.12523 36077 ft 471 kts 29°
2026-05-04 16:51 43.52469 -8.05450 36061 ft 471 kts 29°
2026-05-04 16:52 43.63658 -7.95996 36058 ft 471 kts 29°
2026-05-04 16:53 43.71994 -7.88929 36051 ft 470 kts 29°
2026-05-04 16:54 43.83142 -7.79425 36055 ft 470 kts 30°
2026-05-04 16:55 43.99784 -7.65171 36048 ft 469 kts 30°
2026-05-04 16:56 44.13630 -7.53263 36035 ft 469 kts 30°
2026-05-04 16:57 44.21948 -7.46051 36037 ft 469 kts 30°
2026-05-04 16:58 44.33020 -7.36425 36034 ft 468 kts 30°
2026-05-04 17:00 44.49553 -7.21981 36027 ft 467 kts 31°
2026-05-04 17:01 44.63325 -7.09879 36022 ft 468 kts 31°
2026-05-04 17:02 44.74352 -7.00104 36022 ft 468 kts 31°
2026-05-04 17:03 44.82623 -6.92757 36016 ft 468 kts 31°
2026-05-04 17:03 44.90685 -6.84953 36020 ft 468 kts 35°
2026-05-04 17:04 45.01186 -6.74127 36022 ft 469 kts 35°
2026-05-04 17:05 45.11789 -6.63350 36016 ft 469 kts 35°
2026-05-04 17:06 45.19741 -6.55253 36021 ft 468 kts 35°
2026-05-04 17:07 45.25887 -6.48972 36002 ft 469 kts 36°
2026-05-04 17:07 45.32921 -6.41743 36010 ft 469 kts 36°
2026-05-04 17:08 45.40853 -6.33579 36016 ft 469 kts 36°
2026-05-04 17:09 45.46137 -6.28131 36020 ft 469 kts 36°
2026-05-04 17:09 45.51413 -6.22659 36008 ft 468 kts 36°
2026-05-04 17:10 45.64573 -6.08968 36010 ft 469 kts 36°
2026-05-04 17:11 45.68997 -6.04355 36019 ft 469 kts 36°
2026-05-04 17:12 45.76880 -5.96110 36019 ft 469 kts 36°
2026-05-04 17:13 45.90043 -5.82268 36007 ft 469 kts 37°
2026-05-04 17:14 46.00565 -5.71149 36018 ft 469 kts 37°
2026-05-04 17:15 46.08440 -5.62784 36019 ft 468 kts 37°
2026-05-04 17:16 46.18880 -5.51633 36013 ft 468 kts 37°
2026-05-04 17:17 46.29316 -5.40462 36013 ft 468 kts 37°
2026-05-04 17:18 46.39762 -5.29217 36014 ft 468 kts 37°
2026-05-04 17:19 46.50196 -5.17927 36008 ft 467 kts 38°
2026-05-04 17:20 46.60571 -5.06641 36013 ft 467 kts 38°
2026-05-04 17:20 46.68359 -4.98125 36010 ft 467 kts 38°
2026-05-04 17:21 46.78749 -4.86752 35998 ft 467 kts 38°
2026-05-04 17:22 46.83915 -4.81069 36000 ft 467 kts 38°
2026-05-04 17:23 46.94292 -4.69602 36011 ft 467 kts 38°
2026-05-04 17:24 47.02061 -4.60982 36014 ft 467 kts 38°
2026-05-04 17:25 47.12402 -4.49451 36016 ft 466 kts 39°
2026-05-04 17:26 47.22672 -4.37938 36012 ft 465 kts 39°
2026-05-04 17:27 47.35552 -4.23410 36018 ft 464 kts 39°
2026-05-04 17:28 47.45749 -4.11855 36005 ft 464 kts 39°
2026-05-04 17:29 47.61107 -3.94384 36008 ft 465 kts 39°
2026-05-04 17:31 47.73895 -3.79690 36002 ft 465 kts 39°
2026-05-04 17:32 47.86665 -3.64938 36002 ft 465 kts 39°
2026-05-04 17:33 47.96841 -3.53111 35997 ft 465 kts 39°
2026-05-04 17:34 48.07032 -3.41191 36000 ft 464 kts 39°
2026-05-04 17:35 48.19755 -3.26271 36004 ft 464 kts 39°
2026-05-04 17:36 48.24803 -3.20312 36007 ft 464 kts 39°
2026-05-04 17:36 48.29879 -3.14295 36010 ft 464 kts 40°
2026-05-04 17:37 48.34953 -3.08276 36011 ft 464 kts 40°
2026-05-04 17:37 48.40022 -3.02244 36006 ft 464 kts 40°
2026-05-04 17:38 48.45069 -2.96233 36003 ft 465 kts 40°
2026-05-04 17:38 48.50139 -2.90175 36011 ft 464 kts 40°
2026-05-04 17:39 48.57737 -2.81048 36016 ft 465 kts 40°
2026-05-04 17:39 48.62796 -2.74945 36020 ft 465 kts 40°
2026-05-04 17:40 48.67822 -2.68880 36019 ft 465 kts 40°
2026-05-04 17:40 48.72883 -2.62759 36020 ft 465 kts 40°
2026-05-04 17:41 48.77945 -2.56626 36007 ft 465 kts 40°
2026-05-04 17:41 48.83063 -2.50571 36006 ft 466 kts 39°
2026-05-04 17:42 48.88230 -2.44593 36002 ft 467 kts 39°
2026-05-04 17:42 48.93369 -2.38629 36004 ft 467 kts 39°
2026-05-04 17:43 48.98518 -2.32575 36011 ft 467 kts 39°
2026-05-04 17:43 49.03660 -2.26496 36014 ft 467 kts 39°
2026-05-04 17:44 49.08806 -2.20405 36007 ft 467 kts 39°
2026-05-04 17:44 49.13913 -2.14354 36007 ft 468 kts 39°
2026-05-04 17:45 49.19063 -2.08244 36010 ft 468 kts 39°
2026-05-04 17:45 49.24453 -2.02630 36002 ft 470 kts 30°
2026-05-04 17:46 49.30194 -1.97792 35907 ft 471 kts 30°
2026-05-04 17:46 49.33057 -1.95366 35655 ft 470 kts 30°
2026-05-04 17:46 49.35879 -1.92967 35414 ft 469 kts 30°
2026-05-04 17:47 49.38735 -1.90535 35171 ft 470 kts 30°
2026-05-04 17:47 49.41599 -1.88095 34934 ft 470 kts 30°
2026-05-04 17:47 49.44463 -1.85651 34697 ft 471 kts 30°
2026-05-04 17:47 49.47328 -1.83203 34463 ft 471 kts 31°
2026-05-04 17:48 49.50192 -1.80748 34233 ft 472 kts 31°
2026-05-04 17:48 49.53065 -1.78282 33975 ft 471 kts 31°
2026-05-04 17:48 49.55929 -1.75824 33700 ft 471 kts 31°
2026-05-04 17:48 49.58761 -1.73411 33424 ft 472 kts 29°
2026-05-04 17:49 49.61783 -1.71424 33140 ft 474 kts 21°
2026-05-04 17:49 49.64893 -1.69716 32893 ft 474 kts 21°
2026-05-04 17:49 49.68013 -1.68003 32613 ft 475 kts 21°
2026-05-04 17:49 49.71125 -1.66287 32344 ft 475 kts 21°
2026-05-04 17:50 49.74242 -1.64561 32081 ft 476 kts 21°
2026-05-04 17:50 49.77363 -1.62829 31820 ft 475 kts 21°
2026-05-04 17:50 49.80473 -1.61101 31562 ft 475 kts 21°
2026-05-04 17:50 49.83577 -1.59372 31304 ft 474 kts 21°
2026-05-04 17:51 49.86679 -1.57649 31052 ft 472 kts 21°
2026-05-04 17:51 49.89772 -1.55934 30807 ft 471 kts 22°
2026-05-04 17:51 49.92802 -1.54251 30368 ft 466 kts 22°
2026-05-04 17:51 49.95848 -1.52555 29751 ft 463 kts 22°
2026-05-04 17:52 49.98862 -1.50869 29202 ft 457 kts 22°
2026-05-04 17:52 50.01835 -1.49234 28651 ft 451 kts 21°
2026-05-04 17:52 50.04807 -1.47715 28114 ft 446 kts 20°
2026-05-04 17:52 50.07754 -1.46296 27567 ft 441 kts 19°
2026-05-04 17:53 50.10680 -1.44924 27037 ft 436 kts 19°
2026-05-04 17:53 50.13575 -1.43569 26508 ft 431 kts 19°
2026-05-04 17:53 50.16397 -1.42229 25992 ft 426 kts 19°
2026-05-04 17:53 50.19213 -1.40866 25480 ft 422 kts 19°
2026-05-04 17:54 50.22011 -1.39492 24981 ft 417 kts 20°
2026-05-04 17:54 50.24765 -1.38127 24493 ft 413 kts 20°
2026-05-04 17:54 50.27490 -1.36775 24016 ft 408 kts 19°
2026-05-04 17:54 50.30183 -1.35438 23544 ft 404 kts 19°
2026-05-04 17:55 50.32854 -1.34113 23054 ft 399 kts 19°
2026-05-04 17:55 50.35478 -1.32812 22610 ft 392 kts 19°
2026-05-04 17:55 50.38060 -1.31530 22177 ft 386 kts 19°
2026-05-04 17:55 50.40605 -1.30268 21748 ft 380 kts 19°
2026-05-04 17:56 50.43077 -1.29042 21326 ft 374 kts 19°
2026-05-04 17:56 50.45545 -1.27817 20728 ft 372 kts 19°
2026-05-04 17:56 50.48046 -1.26544 19804 ft 382 kts 22°
2026-05-04 17:56 50.49653 -1.25439 19455 ft 379 kts 28°
2026-05-04 17:57 50.51889 -1.23274 18967 ft 375 kts 38°
2026-05-04 17:57 50.53902 -1.20695 18500 ft 372 kts 41°
2026-05-04 17:57 50.55879 -1.18102 17982 ft 369 kts 41°
2026-05-04 17:57 50.57838 -1.15527 17444 ft 366 kts 41°
2026-05-04 17:58 50.59783 -1.12966 16912 ft 363 kts 41°
2026-05-04 17:58 50.61717 -1.10412 16393 ft 361 kts 41°
2026-05-04 17:58 50.63634 -1.07882 15888 ft 358 kts 40°
2026-05-04 17:58 50.65525 -1.05335 15366 ft 357 kts 44°
2026-05-04 17:59 50.67174 -1.02428 14881 ft 355 kts 51°
2026-05-04 17:59 50.68729 -0.99418 14395 ft 353 kts 51°
2026-05-04 17:59 50.71827 -0.93450 13398 ft 349 kts 51°
2026-05-04 18:00 50.73345 -0.90520 13034 ft 335 kts 51°
2026-05-04 18:00 50.74760 -0.87788 12998 ft 309 kts 51°
2026-05-04 18:00 50.76093 -0.85219 13011 ft 306 kts 51°
2026-05-04 18:00 50.77438 -0.82619 13010 ft 305 kts 51°
2026-05-04 18:01 50.78783 -0.80017 13010 ft 305 kts 51°
2026-05-04 18:01 50.80100 -0.77390 13008 ft 305 kts 56°
2026-05-04 18:01 50.81092 -0.74430 12982 ft 305 kts 69°
2026-05-04 18:02 50.82013 -0.67890 12098 ft 302 kts 80°
2026-05-04 18:02 50.82384 -0.64632 11724 ft 299 kts 80°
2026-05-04 18:02 50.82754 -0.61407 11338 ft 296 kts 80°
2026-05-04 18:02 50.83123 -0.58215 10970 ft 294 kts 80°
2026-05-04 18:03 50.83490 -0.55048 10601 ft 292 kts 80°
2026-05-04 18:03 50.83850 -0.51938 10241 ft 290 kts 80°
2026-05-04 18:03 50.84211 -0.48807 9866 ft 288 kts 80°
2026-05-04 18:03 50.84571 -0.45694 9479 ft 286 kts 80°
2026-05-04 18:04 50.84927 -0.42603 9110 ft 285 kts 80°
2026-05-04 18:04 50.85278 -0.39529 8748 ft 283 kts 80°
2026-05-04 18:04 50.85971 -0.33442 8036 ft 277 kts 80°
2026-05-04 18:05 50.86309 -0.30472 7690 ft 271 kts 80°
2026-05-04 18:05 50.86637 -0.27573 7348 ft 265 kts 80°
2026-05-04 18:05 50.86957 -0.24737 7028 ft 259 kts 80°
2026-05-04 18:05 50.87268 -0.21950 6696 ft 254 kts 80°
2026-05-04 18:06 50.87865 -0.16603 6188 ft 239 kts 79°
2026-05-04 18:06 50.88156 -0.14005 6111 ft 240 kts 79°
2026-05-04 18:06 50.88449 -0.11402 6012 ft 240 kts 79°
2026-05-04 18:07 50.88781 -0.08821 5907 ft 239 kts 70°
2026-05-04 18:07 50.89692 -0.06690 5678 ft 235 kts 37°
2026-05-04 18:07 50.91164 -0.05613 5468 ft 234 kts
2026-05-04 18:07 50.92765 -0.05851 5297 ft 233 kts 342°
2026-05-04 18:08 50.94276 -0.06814 5097 ft 233 kts 336°
2026-05-04 18:08 50.95760 -0.07864 5003 ft 233 kts 336°
2026-05-04 18:08 50.97240 -0.08926 5011 ft 234 kts 336°
2026-05-04 18:08 50.98728 -0.09988 5012 ft 234 kts 336°
2026-05-04 18:09 51.01696 -0.12127 5010 ft 234 kts 336°
2026-05-04 18:09 51.04634 -0.14265 5011 ft 234 kts 336°
2026-05-04 18:10 51.06117 -0.15339 5010 ft 234 kts 336°
2026-05-04 18:10 51.07600 -0.16411 5008 ft 234 kts 336°
2026-05-04 18:10 51.09084 -0.17489 5008 ft 234 kts 336°
2026-05-04 18:10 51.10562 -0.18565 5008 ft 234 kts 336°
2026-05-04 18:11 51.12039 -0.19649 5010 ft 233 kts 336°
2026-05-04 18:11 51.13516 -0.20726 5009 ft 234 kts 336°
2026-05-04 18:11 51.14999 -0.21805 5009 ft 234 kts 336°
2026-05-04 18:11 51.16483 -0.22877 5008 ft 234 kts 336°
2026-05-04 18:12 51.17923 -0.24002 5008 ft 234 kts 327°
2026-05-04 18:12 51.18977 -0.25969 5009 ft 237 kts 295°
2026-05-04 18:12 51.19215 -0.28550 5009 ft 240 kts 262°
2026-05-04 18:12 51.18558 -0.30969 5013 ft 241 kts 230°
2026-05-04 18:13 51.17196 -0.32485 5010 ft 241 kts 199°
2026-05-04 18:13 51.15574 -0.33173 5011 ft 240 kts 192°
2026-05-04 18:13 51.12292 -0.34276 5012 ft 241 kts 191°
2026-05-04 18:14 51.10649 -0.34819 5012 ft 242 kts 191°
2026-05-04 18:14 51.08999 -0.35368 5012 ft 242 kts 191°
2026-05-04 18:14 51.07371 -0.35910 5010 ft 242 kts 191°
2026-05-04 18:15 51.04341 -0.37589 5010 ft 242 kts 222°
2026-05-04 18:15 51.02813 -0.42264 5016 ft 240 kts 251°
2026-05-04 18:15 51.02249 -0.44772 5016 ft 240 kts 251°
2026-05-04 18:16 51.01709 -0.47290 5012 ft 241 kts 256°
2026-05-04 18:16 51.01704 -0.49897 4823 ft 234 kts 287°
2026-05-04 18:16 51.02525 -0.52061 4382 ft 229 kts 320°
2026-05-04 18:17 51.05375 -0.54137 4012 ft 228 kts 349°
2026-05-04 18:17 51.06911 -0.53965 4013 ft 226 kts 21°
2026-05-04 18:17 51.09430 -0.51741 3997 ft 189 kts 38°
2026-05-04 18:18 51.10282 -0.50227 3896 ft 185 kts 58°
2026-05-04 18:18 51.10727 -0.48322 3696 ft 185 kts 76°
2026-05-04 18:18 51.11005 -0.46333 3463 ft 183 kts 76°
2026-05-04 18:18 51.11281 -0.44373 3224 ft 181 kts 76°
2026-05-04 18:19 51.11830 -0.40463 2737 ft 180 kts 76°
2026-05-04 18:19 51.12101 -0.38528 2497 ft 178 kts 76°
2026-05-04 18:19 51.12364 -0.36647 2256 ft 171 kts 76°
2026-05-04 18:20 51.12614 -0.34853 2027 ft 163 kts 76°
2026-05-04 18:20 51.12857 -0.33119 1827 ft 160 kts 76°
2026-05-04 18:20 51.13096 -0.31410 1603 ft 158 kts 76°
2026-05-04 18:20 51.13328 -0.29741 1384 ft 151 kts 76°
2026-05-04 18:21 51.13546 -0.28171 1181 ft 141 kts 76°
2026-05-04 18:21 51.13756 -0.26665 993 ft 138 kts 76°
2026-05-04 18:21 51.13962 -0.25184 802 ft 136 kts 76°
2026-05-04 18:21 51.14174 -0.23711 615 ft 135 kts 76°
2026-05-04 18:22 51.14381 -0.22256 450 ft 135 kts 77°
2026-05-04 18:22 51.14568 -0.20822 273 ft 133 kts 77°
2026-05-04 18:22 51.14758 -0.19440 212 ft 113 kts 77°
2026-05-04 18:22 51.14889 -0.18494 210 ft 64 kts 77°
2026-05-04 18:23 51.14962 -0.18021 213 ft 31 kts 65°
2026-05-04 18:23 51.15050 -0.17807 218 ft 10 kts 52°
2026-05-04 18:23 51.15111 -0.17756 205 ft 9 kts 355°
2026-05-04 18:23 51.15119 -0.17757 205 ft 2 kts 354°
2026-05-04 18:24 51.15137 -0.17760 205 ft 3 kts 353°
2026-05-04 18:24 51.15167 -0.17766 205 ft 5 kts 352°
2026-05-04 18:24 51.15193 -0.17771 216 ft 0 kts 352°
2026-05-04 18:25 51.15214 -0.17776 209 ft 5 kts 352°
2026-05-04 18:25 51.15256 -0.17760 211 ft 8 kts 54°
2026-05-04 18:25 51.15270 -0.17668 204 ft 10 kts 77°
2026-05-04 18:26 51.15287 -0.17549 204 ft 12 kts 78°
2026-05-04 18:26 51.15305 -0.17407 212 ft 14 kts 66°
2026-05-04 18:26 51.15364 -0.17300 206 ft 14 kts 71°
2026-05-04 18:26 51.15400 -0.17146 207 ft 16 kts 64°
2026-05-04 18:27 51.15429 -0.16969 204 ft 17 kts 78°
2026-05-04 18:27 51.15453 -0.16793 211 ft 9 kts 79°
2026-05-04 18:27 51.15445 -0.16689 204 ft 11 kts 86°
2026-05-04 18:27 51.15461 -0.16568 215 ft 9 kts 78°
2026-05-04 18:28 51.15500 -0.16521 204 ft 8 kts 350°
2026-05-04 18:28 51.15534 -0.16533 206 ft 1 kts 348°
2026-05-04 18:28 51.15540 -0.16535 215 ft 0 kts 347°
2026-05-04 18:28 51.15541 -0.16536 214 ft 0 kts 347°